CW8593 Weather Reports


Display with metric or nautical units.
time (UTC)temp
F
wind
direction
speed
MPH
gust
MPH
rain 1hr
in
rain 24hr
in
rain mn
in
humidity
%
barometer
mb
20141001121323 73 173 6.0 12.0 0.00 0.02 0.01 78 1024.5
20141001115319 74 118 4.0 8.0 0.00 0.02 0.01 75 1024.7
20141001113320 74 128 2.0 9.0 0.00 0.02 0.01 75 1024.8
20141001111321 76 79 1.0 5.0 0.00 0.02 0.01 65 1024.9
20141001110320 77 64 3.0 7.0 0.00 0.02 0.01 64 1025.0
20141001105319 76 0 0.0 6.0 0.00 0.02 0.01 67 1025.0
20141001104319 75 0 4.0 7.0 0.00 0.02 0.01 69 1025.1
20141001103319 74 28 2.0 6.0 0.00 0.02 0.01 70 1025.1
20141001102319 74 29 3.0 7.0 0.00 0.02 0.01 71 1025.2
20141001101320 74 9 2.0 8.0 0.00 0.02 0.01 71 1025.2
20141001094319 73 333 3.0 7.0 0.00 0.02 0.01 72 1025.2
20141001093319 73 351 1.0 7.0 0.00 0.02 0.01 74 1025.2
20141001092319 72 319 2.0 8.0 0.00 0.02 0.01 75 1024.9
20141001091324 72 355 5.0 12.0 0.00 0.03 0.01 75 1024.9
20141001090321 72 340 5.0 10.0 0.00 0.03 0.01 75 1024.8
20141001085321 72 5 7.0 10.0 0.00 0.06 0.01 73 1024.9
20141001083319 72 333 3.0 10.0 0.00 0.07 0.01 74 1024.9
20141001082320 72 337 4.0 8.0 0.00 0.09 0.01 74 1025.0
20141001081320 72 294 3.0 8.0 0.00 0.09 0.01 75 1025.0
20141001080320 72 327 2.0 5.0 0.00 0.09 0.01 77 1025.1
20141001075319 71 285 0.0 1.0 0.00 0.09 0.01 79 1025.0
20141001074319 71 285 0.0 1.0 0.00 0.13 0.01 81 1024.9
20141001073319 69 284 0.0 1.0 0.00 0.14 0.01 86 1024.9
20141001071320 67 284 0.0 2.0 0.00 0.15 0.01 90 1024.6
20141001070319 66 285 0.0 0.0 0.00 0.15 0.01 91 1024.6
20141001065319 65 284 0.0 0.0 0.00 0.15 0.01 91 1024.7
20141001064319 64 285 0.0 0.0 0.01 0.15 0.01 91 1024.8
20141001063319 64 284 0.0 0.0 0.01 0.15 0.01 91 1024.8
20141001055319 63 281 0.0 2.0 0.01 0.15 0.01 91 1024.5
20141001053319 63 281 0.0 0.0 0.00 0.14 0.00 91 1024.5
20141001051319 63 281 0.0 0.0 0.00 0.14 0.00 91 1024.4
20141001045319 63 281 0.0 0.0 0.00 0.14 0.00 91 1024.3
20141001044319 63 280 0.0 0.0 0.00 0.14 0.00 91 1024.1
20141001043319 64 281 0.0 0.0 0.00 0.14 0.00 91 1024.0
20141001042319 64 280 0.0 0.0 0.00 0.14 0.00 91 1023.9
20141001035319 64 281 0.0 3.0 0.00 0.14 0.00 91 1023.9
20141001034319 64 280 1.0 2.0 0.00 0.14 0.00 91 1023.9
20141001031319 63 280 1.0 3.0 0.00 0.14 0.00 91 1024.0
20141001025319 64 280 0.0 1.0 0.00 0.14 0.00 92 1024.0
20141001023319 64 280 0.0 1.0 0.00 0.14 0.00 92 1024.0
20141001022318 64 281 0.0 1.0 0.00 0.14 0.00 92 1024.0
20141001021319 64 280 0.0 0.0 0.00 0.14 0.00 92 1024.1
20141001020319 64 281 0.0 1.0 0.00 0.14 0.00 92 1024.2
20141001014320 65 281 0.0 2.0 0.00 0.14 0.00 91 1024.5
20141001013319 65 280 0.0 0.0 0.00 0.14 0.00 91 1024.6
20141001012319 65 281 0.0 0.0 0.00 0.14 0.00 91 1024.6
20141001011319 65 281 0.0 0.0 0.00 0.14 0.00 91 1024.5
20141001005318 65 281 0.0 1.0 0.00 0.14 0.00 90 1024.3
20141001003319 66 281 0.0 3.0 0.00 0.14 0.00 90 1024.3
20141001001320 66 281 0.0 1.0 0.00 0.14 0.00 90 1024.1
20141001000320 66 280 0.0 1.0 0.00 0.14 0.00 90 1024.1
20140930232318 67 281 0.0 1.0 0.00 0.14 0.14 90 1024.3
20140930230319 67 281 1.0 6.0 0.00 0.14 0.14 90 1024.6
20140930225319 67 228 0.0 1.0 0.00 0.14 0.14 91 1024.6
20140930224319 67 227 0.0 2.0 0.00 0.14 0.14 91 1024.7
20140930223319 67 227 0.0 2.0 0.00 0.14 0.14 91 1024.9
20140930221319 67 227 0.0 1.0 0.00 0.14 0.14 91 1024.8
20140930214319 67 228 0.0 1.0 0.00 0.14 0.14 92 1024.8
20140930213319 67 227 0.0 1.0 0.00 0.14 0.14 92 1024.8
20140930212318 67 228 0.0 0.0 0.00 0.14 0.14 92 1024.7
20140930211318 67 228 0.0 0.0 0.00 0.14 0.14 92 1024.7
20140930205319 67 227 1.0 2.0 0.00 0.14 0.14 92 1024.6
20140930204319 67 227 0.0 2.0 0.00 0.14 0.14 92 1024.6
20140930202319 67 227 0.0 0.0 0.00 0.14 0.14 92 1024.5
20140930201318 67 228 0.0 0.0 0.00 0.14 0.14 92 1024.4
20140930200318 67 227 0.0 3.0 0.00 0.14 0.14 91 1024.4
20140930195319 67 228 1.0 3.0 0.00 0.14 0.14 91 1024.3
20140930194319 67 227 1.0 3.0 0.00 0.14 0.14 91 1024.2
20140930193319 67 228 0.0 1.0 0.00 0.14 0.14 91 1024.1
20140930192319 68 227 0.0 2.0 0.00 0.14 0.14 91 1024.0
20140930191319 67 228 1.0 3.0 0.00 0.14 0.14 90 1024.0
20140930190319 68 228 0.0 2.0 0.00 0.14 0.14 90 1024.0
20140930185319 68 227 1.0 3.0 0.00 0.14 0.14 89 1023.9
20140930184318 69 227 0.0 0.0 0.00 0.14 0.14 89 1023.8
20140930183318 69 228 0.0 2.0 0.00 0.14 0.14 89 1023.7
20140930182319 69 228 0.0 2.0 0.00 0.14 0.14 89 1023.7
20140930181318 69 227 0.0 3.0 0.00 0.14 0.14 88 1023.6
20140930174319 70 227 1.0 3.0 0.00 0.14 0.14 87 1023.6
20140930170318 70 227 0.0 0.0 0.00 0.14 0.14 86 1023.4
20140930165318 70 227 0.0 0.0 0.00 0.14 0.14 86 1023.4
20140930164318 70 227 0.0 1.0 0.00 0.14 0.14 86 1023.3
20140930163318 70 227 0.0 2.0 0.00 0.14 0.14 87 1023.4
20140930162318 70 227 0.0 1.0 0.01 0.14 0.14 87 1023.4
20140930160319 70 227 0.0 2.0 0.01 0.14 0.14 86 1023.3
20140930152318 71 227 2.0 8.0 0.00 0.13 0.13 84 1023.1
20140930151318 71 193 4.0 8.0 0.00 0.13 0.13 83 1023.1
20140930150318 71 214 3.0 7.0 0.00 0.13 0.13 83 1023.1
20140930145319 71 192 4.0 10.0 0.00 0.13 0.13 83 1023.0
20140930144319 71 191 4.0 12.0 0.00 0.13 0.13 83 1022.9
20140930143318 72 221 6.0 10.0 0.00 0.13 0.13 81 1022.9
20140930142319 73 213 6.0 10.0 0.00 0.13 0.13 79 1022.8
20140930140319 73 165 4.0 8.0 0.00 0.13 0.13 78 1022.7
20140930135318 74 161 2.0 8.0 0.00 0.13 0.13 77 1022.7
20140930134318 74 115 5.0 8.0 0.00 0.13 0.13 75 1022.7
20140930125318 76 42 5.0 9.0 0.00 0.13 0.13 69 1022.6
20140930124319 76 67 1.0 8.0 0.00 0.13 0.13 70 1022.8
20140930123318 75 28 1.0 6.0 0.00 0.13 0.13 72 1022.8
20140930122318 74 61 2.0 7.0 0.00 0.13 0.13 73 1022.9